Wind_Speed
100 101 102 103 104 105 106 107 108 108 108 108 109 110 111 110 111 111 112 111 111 111 109 108 108 107 105 103 101 97 94 92 92 91 92 90 87 84 82 80 80 81 80 79 76 73 69 63 57 54 54 56 61 67 71 74 76 77 78 80 82 85 88 93 96 95 94 94 94 92 92 91 90 86 83 82 79 76 72 67 65 63 58 56 55 51 52
105 106 108 109 110 111 112 113 114 114 114 114 114 115 115 115 114 115 115 114 114 114 113 112 111 109 107 105 102 99 97 95 93 93 93 92 90 87 84 82 82 82 82 81 79 76 72 67 62 58 56 56 60 65 69 72 75 77 79 79 80 82 85 89 94 95 96 98 97 93 92 92 90 86 83 81 79 76 74 71 70 67 62 60 57 51 53
111 113 114 116 117 118 119 119 119 119 119 118 117 117 117 117 116 117 117 116 115 116 116 115 114 112 110 108 105 103 100 98 97 96 95 94 93 90 86 85 83 83 83 82 81 79 75 70 67 62 59 58 61 64 67 70 74 77 79 79 79 80 82 85 89 93 96 97 96 93 92 91 89 86 84 82 81 79 77 76 74 69 63 62 58 53 56
117 119 120 120 121 121 122 122 122 122 121 121 120 119 119 119 118 119 120 119 118 118 119 118 117 116 114 111 109 107 104 101 99 98 97 96 95 92 89 87 85 84 83 82 81 80 77 74 71 67 63 62 63 64 65 69 73 76 78 79 79 79 80 81 85 89 92 95 95 95 95 94 93 91 89 86 85 83 81 81 78 71 67 66 60 56 58
121 121 121 122 122 122 123 123 124 124 124 124 123 122 122 121 121 121 122 122 121 121 121 120 119 118 116 114 112 110 107 104 101 100 99 99 98 96 93 90 87 85 84 83 81 81 80 78 74 70 67 65 64 64 64 67 71 75 77 79 79 79 78 79 82 85 88 92 95 97 98 98 96 95 93 91 90 88 86 84 80 74 72 68 63 60 59
121 122 122 123 123 124 124 125 126 126 126 127 125 124 124 123 122 123 123 123 123 123 122 121 120 119 117 115 113 112 109 106 103 101 101 101 100 98 95 92 89 87 86 84 82 82 83 79 75 73 70 67 66 65 64 65 69 73 76 78 78 78 77 78 80 82 85 89 93 97 99 100 99 98 96 94 93 91 90 87 82 79 76 70 66 65 62
122 122 123 124 125 125 126 127 127 128 128 129 127 126 125 125 124 124 123 123 124 124 123 122 120 119 118 116 113 111 110 108 105 103 101 101 100 99 96 94 92 90 88 86 84 83 83 81 78 75 73 70 69 67 64 64 67 71 74 76 77 77 77 77 79 80 83 86 90 94 98 100 101 100 98 97 95 94 91 88 85 83 80 74 71 70 66
123 124 125 126 127 127 127 127 127 127 128 128 127 125 125 124 124 123 123 122 123 124 124 122 120 119 118 116 114 112 111 109 106 103 101 100 100 100 99 98 95 93 90 87 84 83 83 83 81 78 74 73 72 69 66 65 66 68 70 72 75 76 76 77 77 78 80 83 86 90 95 99 101 101 100 99 97 96 93 90 86 84 81 77 75 72 68
124 124 125 125 125 125 124 123 122 122 121 122 121 120 119 118 118 118 118 118 118 119 120 120 118 117 117 116 114 113 112 110 106 102 101 101 102 103 101 99 95 92 89 87 85 84 84 83 82 79 77 76 75 71 68 65 65 66 68 70 73 74 74 76 76 75 77 81 85 89 92 97 101 102 101 100 99 97 94 90 87 84 81 79 77 73 69
121 121 119 118 117 115 114 112 111 110 109 110 110 109 108 107 107 107 107 108 109 111 112 113 113 113 113 113 113 112 112 111 108 105 103 103 104 103 102 99 95 93 91 89 86 84 82 82 82 81 79 78 76 74 71 67 65 66 67 69 71 73 73 75 76 75 75 78 83 87 90 95 98 100 99 98 97 96 93 90 88 85 83 81 77 73 72
113 111 108 105 103 101 99 98 97 96 95 96 97 97 96 95 95 95 95 96 98 100 102 103 104 105 106 108 109 110 111 111 109 107 105 104 104 103 102 100 98 95 93 90 85 83 82 82 82 81 80 78 77 76 74 69 65 64 66 67 68 70 72 73 73 73 75 78 81 84 88 90 92 93 94 96 96 95 95 93 90 89 86 82 78 76 76
101 97 94 91 89 87 86 85 85 84 83 84 86 86 85 84 84 85 85 85 88 90 92 92 94 96 98 100 102 105 108 109 109 108 106 105 104 103 103 102 100 97 94 90 86 84 83 83 82 82 80 79 78 78 75 71 66 64 65 66 66 67 69 71 71 72 74 77 79 82 84 84 85 87 90 94 97 98 98 96 94 92 89 84 81 79 78
89 86 84 82 80 78 77 76 76 75 74 75 77 77 76 76 75 76 76 77 79 82 83 84 85 87 89 91 94 98 102 105 106 107 107 107 106 104 104 103 101 98 94 91 88 86 84 83 83 82 81 80 79 78 76 72 68 66 65 64 64 64 65 68 70 72 74 74 75 78 79 79 81 84 88 93 97 98 98 97 95 92 90 86 84 82 80
80 77 75 73 71 70 68 67 67 66 66 66 68 68 68 67 67 68 69 70 72 74 76 77 78 79 81 82 84 88 94 99 103 105 107 108 107 104 104 103 100 98 96 94 92 89 86 84 83 82 82 81 80 77 75 73 71 68 65 63 63 64 64 64 66 69 72 72 68 69 73 76 79 82 86 91 95 97 98 97 95 92 91 89 86 84 81
71 69 67 65 63 61 60 59 58 58 59 59 61 61 60 60 60 62 62 63 65 67 69 70 71 71 72 75 77 80 86 92 97 101 105 107 107 104 103 101 100 98 97 95 93 91 88 86 84 84 84 82 79 76 75 75 73 70 66 64 63 63 63 63 64 66 70 70 64 60 65 71 76 80 84 88 92 96 97 96 94 93 92 90 87 85 83
64 62 60 58 56 54 53 52 51 51 52 53 55 55 54 54 55 56 56 57 59 62 63 64 64 64 65 68 71 74 78 83 89 96 101 105 105 104 102 100 99 99 97 95 93 91 89 87 85 84 83 81 78 76 76 76 74 72 69 66 64 63 62 61 62 65 69 70 66 60 60 66 72 77 82 86 89 92 95 95 93 92 91 90 88 86 84
59 56 54 52 51 49 47 46 46 46 47 48 49 49 48 49 50 50 51 52 55 58 59 59 59 58 60 63 66 68 72 75 81 89 96 100 102 102 101 100 99 98 97 95 93 90 88 87 85 84 82 80 78 77 77 77 76 73 70 68 65 62 61 59 59 62 67 69 68 63 60 63 68 73 77 83 87 89 92 93 90 88 89 89 87 86 86
55 52 50 48 47 46 44 43 42 42 42 43 44 43 43 44 45 46 46 48 51 54 54 54 54 55 56 58 61 63 67 70 75 82 89 94 98 99 100 100 99 99 98 97 93 90 88 87 85 83 81 79 79 78 77 77 75 72 71 71 67 62 59 58 57 60 65 68 68 66 63 62 65 71 76 81 85 88 89 88 86 85 87 89 88 87 87
52 49 47 45 43 42 41 39 38 38 38 39 39 38 38 40 41 42 43 44 48 50 50 50 51 52 52 54 56 59 62 65 69 76 82 87 92 94 97 99 99 99 99 97 92 89 88 87 86 83 80 79 78 77 75 75 75 73 72 72 68 62 58 56 55 58 63 66 67 67 64 59 60 69 76 78 81 83 83 81 81 83 86 88 88 88 88
48 45 43 41 40 38 38 36 35 34 35 36 36 34 34 36 37 38 39 41 44 46 45 45 47 47 47 50 52 55 58 61 65 71 75 79 84 88 93 97 99 99 98 95 92 90 89 89 88 86 83 79 78 76 74 75 75 72 72 73 71 67 62 57 54 56 59 64 66 66 63 60 59 64 69 73 76 77 77 77 79 82 85 87 88 88 89
44 41 39 38 37 36 34 34 32 32 32 33 33 31 32 33 34 34 35 37 41 41 40 40 42 43 43 47 50 53 55 57 61 65 69 73 78 83 88 93 96 97 96 94 92 91 91 91 90 88 85 81 78 76 74 74 72 70 70 69 66 65 62 56 54 56 58 61 64 62 60 62 64 63 64 67 70 72 74 76 78 79 82 85 85 86 88
41 39 37 35 34 33 32 31 30 30 30 30 29 29 30 30 31 31 32 34 36 35 33 34 37 38 41 45 47 50 52 54 57 61 65 69 74 78 82 88 92 95 95 94 92 91 91 91 91 90 87 83 80 77 73 71 71 72 72 66 58 56 57 54 52 55 57 58 60 59 58 61 64 64 64 64 65 67 71 74 76 77 79 81 83 85 87
38 37 35 34 32 31 30 29 28 28 28 27 26 26 27 27 28 28 29 31 31 29 29 32 35 36 38 41 43 46 49 51 54 59 62 66 71 74 78 83 88 91 92 92 91 91 90 90 89 89 86 83 80 77 73 71 70 69 66 60 54 54 56 54 51 53 55 56 57 56 56 58 60 62 62 62 62 63 66 69 73 74 76 78 80 82 84
36 35 34 32 30 29 28 27 26 26 26 25 24 24 24 24 25 26 26 27 26 25 27 31 32 33 35 38 41 45 47 49 53 56 59 64 68 71 74 79 83 87 90 90 91 91 90 89 88 86 84 82 79 76 74 74 74 70 62 54 52 54 55 53 52 51 51 52 54 55 55 56 58 59 59 59 60 61 63 65 68 70 72 74 76 78 81
35 33 31 30 28 27 26 25 24 24 24 23 22 22 22 21 22 23 24 23 23 24 26 29 30 31 34 38 41 43 45 48 52 55 59 63 66 68 71 76 80 84 87 89 90 90 89 88 88 86 83 81 77 75 77 78 77 74 67 61 58 58 55 51 51 52 50 49 52 54 53 54 55 56 55 56 57 58 60 62 64 66 68 70 71 74 77
32 30 28 27 25 24 24 22 22 21 21 20 20 19 19 20 21 21 21 21 22 24 26 27 29 32 35 37 39 41 43 47 51 55 58 60 63 66 70 74 79 83 86 89 90 90 89 89 88 86 84 82 79 78 81 83 81 75 69 65 63 62 56 51 51 52 50 48 50 52 52 53 53 51 47 47 50 53 56 58 60 63 64 66 68 70 73
29 27 25 23 22 21 20 19 18 18 17 17 16 17 17 18 19 19 20 20 22 24 26 27 29 31 34 36 37 40 43 47 50 53 55 58 61 65 69 73 78 82 86 89 90 90 90 90 89 88 87 86 84 83 85 87 86 80 73 67 64 60 56 52 51 51 49 47 49 51 52 52 50 43 35 34 37 42 47 52 56 59 61 62 63 65 70
25 23 21 19 18 16 15 14 14 13 13 13 13 14 15 17 17 18 18 20 22 24 25 26 28 30 33 35 37 39 43 46 48 51 53 57 61 64 67 72 76 81 85 88 89 89 89 89 90 90 89 88 86 86 86 86 85 81 76 73 68 61 55 53 53 50 48 48 51 52 53 53 47 38 33 32 32 33 36 41 45 49 54 58 60 61 65
21 19 17 15 14 12 11 11 10 10 10 10 11 12 14 15 16 17 18 20 22 24 25 26 29 31 33 35 37 38 41 43 45 48 52 56 59 62 66 70 75 79 84 87 88 89 89 89 90 90 90 89 87 87 87 85 82 78 77 76 70 62 56 55 54 52 49 51 53 54 54 53 48 42 36 33 30 28 29 32 35 37 42 48 54 57 61
17 15 13 11 10 9 8 7 7 7 8 9 10 12 13 14 15 17 18 20 21 23 25 27 29 31 33 34 36 37 38 41 44 47 51 55 57 60 64 68 73 78 83 86 88 90 91 92 91 90 89 88 87 86 86 85 81 77 77 73 66 59 55 55 56 53 51 52 54 56 55 54 52 48 41 33 28 27 27 29 32 33 34 37 43 48 53
13 11 9 8 6 5 5 5 5 6 7 8 9 11 12 14 15 16 18 20 22 24 26 28 29 31 32 33 34 36 38 41 44 47 50 53 55 58 62 67 72 77 81 83 85 87 90 90 90 90 88 86 86 86 86 83 79 77 75 68 60 55 54 55 56 55 52 53 55 57 56 55 54 52 46 39 34 32 29 27 28 30 31 32 35 38 43
9 7 6 4 3 2 3 4 5 6 7 8 9 11 12 13 15 16 18 20 22 24 26 27 29 30 31 33 34 36 38 41 43 46 49 52 55 58 62 66 71 75 78 79 81 83 85 85 86 87 87 85 85 85 83 79 77 75 70 62 55 54 54 55 56 55 53 53 55 57 56 55 56 55 52 47 42 38 34 31 29 29 30 31 32 32 36
7 5 3 2 0 1 2 4 5 6 7 9 10 12 13 14 16 18 19 21 23 24 26 28 29 31 32 33 34 36 38 40 43 45 48 51 54 58 61 66 70 73 76 78 79 80 81 82 83 84 83 83 82 81 78 76 74 70 64 58 54 54 55 55 56 56 53 53 57 59 59 58 58 58 57 54 48 43 41 39 37 36 36 35 34 33 32
5 4 3 2 3 3 4 5 6 7 8 10 11 13 14 16 17 19 20 21 23 25 27 28 30 31 32 33 34 36 38 41 43 46 49 51 54 57 61 65 68 72 75 76 77 78 79 80 81 81 80 79 78 76 75 74 70 64 61 57 54 54 55 55 56 55 53 54 59 63 63 61 59 57 58 57 53 49 47 46 44 44 43 42 41 39 37
5 4 4 5 5 5 6 7 8 9 10 11 12 13 15 16 18 20 21 23 25 27 29 30 31 32 33 34 35 37 38 40 43 45 48 51 53 56 60 63 66 68 70 71 73 76 77 77 77 77 77 75 74 73 73 71 65 61 60 58 55 55 55 55 56 56 54 56 61 64 63 62 60 57 57 58 57 54 53 51 50 48 47 47 47 46 45
5 5 6 6 7 7 8 9 10 11 12 13 14 15 16 17 19 21 23 24 26 27 29 31 32 33 34 35 37 38 39 40 42 44 46 49 52 55 58 60 63 65 66 67 70 72 74 74 74 74 73 71 70 70 70 67 63 61 60 58 56 56 55 55 56 56 55 56 61 64 63 64 64 62 60 59 59 58 56 55 54 53 52 52 51 51 51
6 7 8 8 9 9 10 11 12 13 14 14 15 17 18 19 20 21 23 25 26 26 28 30 32 33 34 35 37 38 39 40 42 43 45 48 51 53 55 58 60 61 63 65 68 69 71 72 72 71 70 68 67 68 66 63 62 61 60 58 57 56 55 55 56 56 55 56 60 62 63 64 66 67 65 63 62 62 61 60 58 58 57 57 56 55 55
7 8 9 10 10 11 12 13 14 15 15 16 17 18 19 20 21 22 23 24 25 25 26 27 30 32 33 34 36 37 38 39 41 43 45 47 49 51 54 55 57 59 61 64 66 67 69 69 69 68 68 67 66 65 63 61 60 60 59 58 57 55 55 55 55 56 55 56 57 61 64 66 68 70 70 68 67 66 65 64 64 62 61 61 60 60 59
9 9 10 11 11 12 13 14 15 16 17 18 19 20 21 22 22 23 23 24 24 25 25 25 27 30 33 34 35 36 37 38 40 42 44 46 48 50 52 54 56 58 60 63 65 66 67 67 67 67 66 65 64 63 62 60 60 60 59 57 56 55 55 55 55 55 56 55 56 61 66 67 68 70 71 69 68 68 67 67 67 66 65 65 64 64 63
11 11 12 12 13 13 14 15 16 17 18 19 20 21 22 23 23 23 24 25 25 26 27 27 27 30 32 34 35 36 37 38 40 42 43 45 47 49 51 53 55 57 59 61 63 65 66 66 66 66 65 63 63 62 61 60 60 59 57 55 54 55 56 56 55 55 55 55 56 62 68 67 66 68 69 68 67 68 68 69 68 66 66 67 67 66 66
13 13 14 14 15 15 16 17 17 18 18 19 21 22 23 24 24 25 26 27 27 27 28 29 29 30 32 34 35 37 38 39 40 41 43 44 46 48 50 51 53 54 57 59 61 63 63 64 65 65 64 63 63 63 62 60 59 58 57 55 54 54 56 57 55 54 55 55 57 64 71 68 63 63 66 67 67 67 67 67 67 66 63 63 63 64 65
14 15 15 16 17 17 18 19 19 19 20 20 21 23 24 25 26 26 27 27 28 28 29 30 30 30 32 34 35 37 39 40 41 42 44 45 45 47 48 49 50 53 55 57 59 60 62 63 64 65 65 64 64 64 62 59 58 58 57 57 55 54 54 56 55 55 56 56 58 66 72 69 61 59 62 65 67 68 67 65 64 64 63 63 62 62 62
15 16 16 17 18 19 20 20 20 20 21 21 22 24 25 26 26 27 27 27 28 28 29 30 31 31 32 34 36 37 39 41 42 43 44 45 46 47 48 49 51 53 55 56 57 60 62 63 64 64 64 64 64 63 61 59 58 58 57 57 56 55 54 55 56 56 58 59 61 65 69 67 62 59 60 62 65 68 69 67 65 63 62 61 61 60 60
16 16 17 18 19 20 21 21 21 22 22 23 23 24 26 26 26 27 27 28 28 29 29 30 31 31 33 34 36 36 37 40 42 43 44 45 46 47 48 49 50 51 52 54 56 59 61 61 62 62 62 62 62 61 61 59 58 57 57 57 57 56 56 57 58 58 59 62 64 65 65 64 61 58 56 56 58 62 65 68 69 68 66 64 61 59 58
17 18 18 18 19 20 21 22 22 22 23 24 24 25 26 26 27 27 28 29 29 30 30 30 31 32 33 34 35 35 36 38 40 42 43 44 45 46 47 48 48 49 50 53 55 56 57 58 59 59 59 59 59 59 59 58 57 57 57 57 58 58 58 60 60 59 60 63 65 66 65 63 62 58 55 53 54 56 58 61 64 67 70 71 69 67 65
19 19 20 19 19 19 20 22 22 23 24 24 25 25 26 26 27 28 29 30 30 31 32 32 32 33 34 34 35 35 35 36 38 40 41 42 43 43 44 45 47 48 51 53 54 54 55 56 57 57 58 58 59 58 58 58 58 59 59 59 59 59 61 62 62 61 61 62 65 67 66 64 62 61 59 56 56 56 56 57 59 61 65 69 72 73 73
20 21 22 21 20 19 19 20 22 23 24 25 25 25 25 26 27 27 27 29 30 30 32 32 33 34 35 35 35 36 36 36 37 39 40 42 43 43 44 45 46 48 49 51 52 52 53 54 55 56 57 58 59 59 60 60 61 62 61 60 59 60 62 64 65 64 63 63 64 66 67 65 63 62 61 60 59 59 59 58 58 60 62 65 69 72 74
22 23 24 22 21 20 19 19 21 22 24 25 26 25 24 26 27 26 25 26 27 27 28 30 31 33 34 35 35 36 37 37 38 40 41 42 43 43 44 45 46 47 48 50 51 52 52 54 55 57 58 59 60 61 63 64 65 64 62 60 60 61 64 67 68 67 66 65 65 65 66 67 66 65 63 62 61 61 61 61 61 63 64 67 69 72 75
26 26 25 23 22 22 22 21 21 23 25 27 28 27 26 27 28 28 26 26 26 26 27 28 30 31 32 33 34 36 37 38 39 40 41 42 42 43 44 45 45 46 48 50 51 53 54 56 57 58 60 61 63 64 65 66 65 63 61 61 61 62 65 69 71 70 69 68 67 66 66 67 68 68 67 65 64 64 65 66 67 68 70 71 73 74 76
28 27 25 24 23 25 25 24 22 22 25 27 29 28 27 28 30 29 28 27 27 27 27 28 30 31 32 33 34 35 36 36 37 38 39 41 42 43 44 45 46 47 49 50 52 53 55 56 57 59 60 62 63 65 65 64 63 61 61 61 62 64 65 69 72 73 72 71 69 68 67 68 69 70 70 69 69 69 69 70 71 73 74 75 76 77 79
26 25 24 24 24 25 26 26 25 23 24 26 28 28 28 29 30 29 29 28 27 27 27 28 29 30 31 32 34 34 34 35 35 36 38 40 42 43 45 46 48 49 50 51 52 53 55 57 58 60 61 61 62 63 63 62 61 61 62 62 63 64 66 68 72 74 74 73 72 71 70 70 70 71 72 72 73 73 74 74 75 76 77 78 79 80 81
24 23 22 22 23 24 25 26 26 25 25 27 28 28 29 30 30 29 28 28 27 27 27 27 27 28 29 31 33 34 35 35 35 36 37 40 42 43 45 47 48 49 50 51 53 55 56 58 59 60 61 62 62 62 62 61 61 61 62 63 63 64 65 67 70 74 76 76 74 74 74 73 72 72 74 75 76 77 77 78 79 78 78 79 79 80 82
Wind_Direction
287 286 284 283 282 281 280 280 279 278 277 277 276 276 275 275 274 274 273 273 273 272 271 270 270 269 269 268 268 267 266 264 263 263 263 262 261 261 260 259 259 260 261 262 262 262 261 259 255 249 244 242 242 241 240 241 241 239 238 235 233 231 230 230 230 229 229 230 230 230 232 233 234 234 234 234 236 237 238 237 235 235 233 231 231 230 230
286 285 284 282 281 280 279 278 277 276 275 274 273 273 273 272 272 271 271 271 271 270 270 269 269 268 267 266 266 265 264 262 261 260 260 260 259 258 258 257 257 257 258 259 260 261 261 260 257 253 247 244 243 242 240 240 241 240 239 237 234 233 231 230 230 229 229 230 230 230 232 234 235 235 235 235 236 237 238 237 236 235 234 234 233 231 230
285 284 283 282 280 279 278 276 275 274 272 271 270 270 269 269 269 268 268 267 267 267 267 267 266 266 265 265 264 262 261 260 259 258 258 258 257 257 256 255 255 255 256 257 258 259 260 259 258 255 251 247 244 242 240 239 239 240 240 238 236 234 232 230 230 230 229 230 231 231 232 234 235 235 235 235 236 236 236 236 236 235 235 235 235 232 231
285 284 282 281 279 278 276 275 273 272 271 270 269 268 267 267 266 266 265 265 264 263 263 263 263 263 263 263 262 261 259 258 257 256 256 256 256 255 254 254 253 253 253 254 255 257 258 258 257 255 252 249 245 242 240 239 239 239 240 239 237 235 233 232 231 230 230 230 230 231 231 232 233 233 233 233 234 234 234 235 235 234 233 233 233 231 230
284 282 281 279 278 276 275 274 272 271 270 269 268 267 266 265 264 264 264 263 262 261 261 260 260 260 260 260 259 259 258 256 254 254 254 253 253 253 253 252 251 250 250 251 252 254 255 255 255 255 253 251 248 244 240 239 239 238 239 239 239 237 234 232 232 230 230 230 229 229 230 231 231 232 232 232 232 232 232 233 233 233 232 232 231 230 228
282 280 279 278 276 275 274 273 272 271 270 269 268 267 266 265 263 262 262 261 261 260 259 258 257 257 257 256 256 256 255 254 252 251 251 251 251 251 251 251 250 248 248 248 249 251 253 254 255 254 254 252 250 246 242 240 239 239 238 238 239 239 237 234 233 231 230 229 229 229 229 230 230 231 232 232 232 232 232 231 231 231 231 230 229 228 226
281 279 278 277 275 274 273 272 271 271 270 269 268 267 266 265 263 262 261 260 259 258 257 256 255 254 254 254 253 253 252 251 250 248 248 248 249 249 249 248 247 246 245 246 246 248 250 252 253 252 252 252 250 247 243 240 240 239 238 238 239 239 238 236 234 232 231 230 230 229 229 230 230 230 231 232 233 233 233 232 231 230 230 228 227 227 226
280 279 277 276 275 274 273 273 272 272 271 270 269 268 267 265 264 263 261 260 259 258 257 256 255 254 253 252 251 250 250 249 248 246 246 246 246 246 246 245 245 245 244 244 245 246 247 249 251 251 251 251 250 248 244 240 239 239 238 238 238 238 239 238 236 234 232 231 231 230 229 230 230 230 231 232 233 233 234 233 232 232 231 229 228 228 227
280 279 278 277 277 276 275 275 274 273 273 272 271 269 268 267 265 264 262 261 260 258 258 257 255 253 252 251 250 249 248 248 246 244 243 242 242 243 243 244 244 244 243 242 242 243 245 247 249 250 250 250 250 249 246 241 239 238 238 237 237 237 238 239 237 235 233 232 231 230 230 230 230 230 230 231 232 233 234 235 234 234 234 233 231 229 228
282 282 281 280 280 279 278 277 275 274 273 272 271 269 268 267 265 264 262 261 259 258 257 256 255 253 252 250 249 248 247 246 245 242 240 239 240 240 241 241 241 241 240 240 240 241 243 244 246 248 248 248 249 248 246 243 239 238 237 236 236 235 236 238 238 236 234 232 231 230 230 230 230 230 230 231 232 234 235 236 236 236 235 235 233 232 230
286 285 284 283 281 280 278 276 275 273 272 271 270 269 267 266 264 263 261 259 258 257 255 254 254 253 251 249 247 246 245 245 244 241 239 238 238 238 238 238 238 238 238 238 238 238 239 241 243 245 246 246 247 247 246 244 240 238 237 237 236 235 235 237 239 238 236 234 233 231 230 230 230 230 231 231 232 233 234 234 235 235 235 235 234 233 232
289 287 286 284 282 280 278 277 275 273 272 270 269 268 266 265 263 261 260 258 256 255 254 253 252 251 250 248 246 244 243 243 242 241 239 237 236 235 235 235 236 236 236 236 235 235 236 238 241 242 243 244 244 245 246 245 242 239 238 237 236 236 236 237 238 239 238 236 235 234 232 231 231 230 230 231 231 231 232 233 233 234 234 234 233 233 234
290 288 287 285 283 281 279 277 275 274 271 270 268 267 266 264 262 260 259 257 255 254 253 252 250 249 248 247 245 242 241 241 240 239 238 237 235 234 233 233 234 234 234 233 233 233 233 236 238 240 241 241 242 243 245 245 243 241 239 238 236 236 235 236 238 239 239 238 237 236 234 232 231 230 229 230 230 230 231 231 232 233 234 234 234 233 233
290 288 286 285 283 281 279 277 275 273 271 269 268 266 265 263 262 259 257 255 253 252 251 250 249 247 246 246 244 241 239 239 238 237 236 235 235 234 232 232 232 232 231 231 231 231 232 233 235 237 238 239 240 242 244 244 243 242 240 239 238 236 235 235 238 239 239 239 239 239 236 233 232 231 229 230 230 230 230 230 231 232 233 233 234 233 233
291 289 287 285 284 282 280 278 276 273 271 269 268 266 265 263 261 259 256 254 252 251 250 249 248 246 244 243 242 239 237 236 236 235 234 234 234 233 232 231 230 229 229 230 230 230 230 231 233 234 236 238 239 239 240 241 242 242 241 240 239 237 235 235 237 239 239 237 237 238 237 234 233 231 230 230 231 230 230 229 229 230 232 233 233 233 233
293 291 289 288 286 284 282 279 276 274 271 269 267 266 264 262 259 257 255 253 251 250 249 247 246 244 242 240 239 238 236 234 233 232 232 232 233 232 231 230 229 228 228 228 229 229 229 230 231 233 234 235 235 235 236 238 240 241 242 241 240 238 236 234 235 238 239 237 234 235 235 234 234 233 231 230 230 231 230 229 228 228 231 232 232 233 234
295 293 292 291 289 286 284 280 277 273 271 268 266 265 263 261 258 256 253 251 249 248 247 246 244 242 239 238 237 235 234 232 231 230 230 230 231 231 230 229 227 226 226 226 227 227 227 228 229 230 231 232 232 233 234 236 238 240 241 242 241 239 238 236 235 237 239 238 234 233 232 232 232 233 232 231 230 230 230 229 227 228 230 231 232 232 233
297 295 294 292 290 287 284 280 277 273 270 268 266 264 262 259 256 254 251 248 246 246 245 244 242 240 237 235 234 233 232 230 228 227 227 228 229 229 228 227 226 224 224 224 224 224 225 225 226 227 228 230 231 232 233 235 237 239 241 242 242 240 239 237 236 236 238 239 236 232 231 232 232 232 232 232 231 231 230 229 227 227 229 230 230 231 232
297 296 294 292 289 286 283 279 276 273 271 268 266 263 260 258 255 252 249 246 245 245 244 241 240 238 235 233 231 230 230 228 226 225 225 226 226 227 226 225 224 223 223 222 222 222 222 222 223 223 224 227 229 230 232 234 236 237 239 242 243 242 240 238 237 237 238 239 237 233 230 232 233 233 233 233 232 232 231 230 228 227 228 229 229 230 231
297 295 293 291 288 285 283 280 277 274 271 268 266 263 259 256 253 250 247 245 243 243 242 239 238 236 233 230 229 228 227 225 223 223 223 223 224 224 224 223 222 221 221 220 219 219 219 220 220 221 222 224 227 228 229 232 234 235 238 241 243 243 241 239 237 237 236 237 238 235 231 230 232 233 233 234 233 233 232 231 229 227 227 228 228 229 230
297 295 293 291 288 285 283 281 278 275 271 268 267 263 258 255 252 249 247 244 243 242 239 236 236 233 229 227 226 225 225 223 221 221 221 220 221 221 221 220 220 219 219 218 217 217 217 218 219 220 221 222 224 226 228 230 233 234 236 239 242 243 242 239 237 235 235 236 238 237 233 231 231 232 233 234 233 232 232 231 230 228 227 227 228 229 230
298 296 294 292 289 287 284 282 279 276 272 269 266 262 258 254 251 248 245 243 242 241 236 233 232 229 225 224 223 222 222 220 218 218 217 217 218 219 218 218 218 217 217 216 215 215 216 217 218 219 220 220 222 223 225 227 231 234 235 237 240 242 242 239 235 233 233 234 235 235 234 233 233 232 233 233 233 232 232 231 230 229 228 228 228 229 231
299 297 296 293 291 288 286 283 280 277 273 269 265 261 257 254 251 247 244 242 241 237 231 228 227 224 221 220 220 219 218 216 215 215 214 214 215 216 215 215 215 214 214 214 213 213 214 215 217 219 219 220 221 222 222 224 227 231 235 235 235 237 238 235 232 232 231 231 231 231 232 234 234 234 234 233 233 233 233 232 231 230 229 229 229 230 231
300 298 297 295 292 290 287 283 280 276 272 268 264 259 256 252 248 245 242 240 237 231 225 223 221 218 216 215 215 214 213 212 212 211 211 211 212 213 212 212 212 212 212 211 211 212 213 214 215 217 218 219 220 220 220 222 225 227 229 229 229 233 234 231 229 230 230 228 227 228 229 232 234 235 235 234 234 233 233 233 232 231 230 230 230 231 231
301 299 298 296 293 291 287 283 279 274 270 266 262 257 253 249 244 241 238 235 230 224 220 218 215 212 211 210 211 210 208 208 208 208 208 208 209 210 209 209 209 209 209 209 210 211 212 213 214 215 216 218 219 219 219 221 223 226 226 226 228 232 234 231 229 230 229 226 224 225 226 229 232 234 235 236 236 235 234 234 233 233 232 231 231 232 232
302 300 298 296 293 290 287 283 279 273 268 264 259 253 248 242 238 234 231 226 221 216 213 211 208 206 206 207 207 206 204 204 205 205 205 206 206 206 206 206 207 207 207 208 208 209 210 212 213 214 214 215 216 217 219 221 222 224 225 226 227 230 231 230 229 229 227 224 223 222 222 225 229 232 235 239 240 238 237 236 235 234 233 233 232 233 234
303 301 298 296 293 290 286 282 277 272 267 261 254 247 240 235 231 227 222 217 213 210 207 205 203 202 203 203 203 201 201 202 202 202 202 202 203 204 204 204 204 205 206 207 208 208 209 211 212 213 214 214 214 215 219 221 222 223 224 224 225 227 227 226 226 226 223 220 220 219 219 221 224 223 225 232 239 240 239 238 237 236 235 234 234 234 235
303 301 299 296 293 289 285 281 276 270 263 255 246 238 231 227 223 218 212 208 206 204 202 200 198 197 199 199 199 199 199 200 200 199 199 200 201 201 201 202 203 204 205 206 206 207 209 211 213 213 214 215 215 216 219 223 224 224 225 226 227 226 225 224 224 222 217 214 215 215 216 217 215 206 203 214 227 234 237 238 238 237 236 235 234 233 235
305 303 301 297 293 289 285 280 273 264 252 242 232 225 220 217 213 208 203 201 199 197 195 193 193 193 195 195 196 196 197 197 196 196 197 198 199 199 199 200 201 202 204 205 206 205 207 209 212 214 215 215 216 218 221 223 225 225 227 228 228 227 225 224 222 219 213 210 211 213 213 212 205 193 190 202 217 229 236 237 237 237 236 236 235 233 235
307 304 302 298 294 289 281 270 258 244 232 223 216 211 208 205 202 199 196 194 192 190 189 189 190 191 192 192 192 193 193 193 193 194 195 196 197 197 197 198 199 201 203 205 205 205 206 207 210 213 215 216 216 218 221 223 224 225 227 228 228 226 225 224 222 219 213 209 210 211 211 209 202 192 187 191 205 219 227 230 232 232 233 236 237 235 235
311 308 305 301 293 281 265 246 228 216 211 206 202 198 197 195 193 191 188 186 185 185 185 185 187 188 188 189 188 188 189 189 190 192 193 193 194 195 195 196 198 200 203 205 205 206 207 208 209 211 214 215 216 219 221 222 223 225 227 228 226 224 224 223 222 219 214 209 209 211 210 207 202 194 188 188 198 209 214 219 225 229 231 232 234 234 231
321 320 316 306 287 256 225 207 194 190 187 185 184 183 182 182 180 181 181 180 180 180 181 182 183 184 184 184 185 185 186 187 187 189 190 191 192 193 193 195 197 199 202 204 205 206 208 209 210 212 213 214 216 219 221 222 223 224 227 226 223 221 221 220 220 219 214 210 208 208 208 205 200 195 191 189 193 202 205 206 209 215 220 224 227 230 230
340 340 338 336 3 149 161 160 162 163 166 168 168 168 169 170 171 173 175 175 176 176 177 178 179 180 181 181 182 182 183 184 185 186 188 189 190 191 192 193 195 198 200 202 203 205 206 208 210 212 213 214 216 218 220 222 223 223 224 223 219 217 217 217 218 217 214 210 206 204 202 200 198 197 196 193 193 198 202 202 201 203 207 211 217 223 229
359 9 26 53 81 106 126 134 137 143 148 152 155 158 160 163 164 166 168 170 172 173 174 175 176 177 177 178 178 179 181 182 183 184 185 187 188 189 190 192 195 197 199 200 201 202 204 206 209 211 213 214 215 217 219 221 222 221 221 219 216 213 213 214 215 215 213 209 206 203 201 199 197 198 199 197 196 198 201 202 203 205 206 209 211 214 217
23 42 60 74 90 105 117 123 127 132 138 142 146 150 154 158 160 161 164 166 169 171 171 172 173 173 174 175 175 176 178 180 181 183 184 185 186 188 190 192 194 196 198 199 199 201 202 204 206 210 212 213 214 215 217 219 219 218 217 216 213 211 210 210 212 213 211 209 208 207 204 200 196 196 198 198 198 200 203 204 205 207 209 211 212 210 210
49 65 79 90 99 107 113 117 122 128 133 137 140 145 149 153 156 159 161 164 166 169 170 170 170 171 172 172 173 174 176 178 179 180 182 183 184 187 189 191 193 194 196 197 198 200 200 202 204 207 209 210 212 213 215 215 214 214 214 212 210 208 207 207 209 211 210 209 209 210 207 203 199 198 199 198 198 201 205 207 207 208 209 212 214 213 213
64 79 90 97 103 108 114 118 122 126 130 133 138 142 145 148 152 156 159 161 163 167 169 170 169 169 169 171 171 172 174 175 176 178 180 181 183 185 187 189 191 192 193 194 196 198 199 200 202 204 205 207 209 211 212 211 210 211 211 209 208 207 206 205 207 209 209 209 210 211 209 206 203 202 202 201 200 202 205 208 209 210 210 211 213 214 216
70 83 93 99 105 111 117 120 122 125 129 132 136 140 141 143 147 152 155 157 159 161 165 167 167 165 166 168 169 170 171 173 174 176 178 180 182 184 185 187 189 190 191 192 194 196 197 199 200 201 202 204 207 209 210 208 207 209 209 208 207 206 204 204 206 208 209 210 211 210 209 208 207 206 206 205 203 203 205 208 210 211 212 212 213 215 217
69 81 90 98 104 110 115 118 121 125 128 131 134 137 138 140 144 147 149 150 152 153 155 159 162 162 162 164 166 167 168 171 172 174 176 179 180 182 184 186 188 189 190 191 193 194 195 197 198 199 200 202 205 208 208 206 205 206 207 206 205 205 203 203 206 207 208 209 210 208 207 209 211 211 211 210 207 206 207 210 211 212 213 214 215 216 218
70 79 86 93 100 105 110 113 117 122 126 129 132 135 136 137 140 142 143 143 146 148 150 152 156 159 160 161 163 164 165 168 170 172 175 178 179 181 183 185 187 188 189 190 192 193 194 195 195 197 198 199 202 205 207 205 204 205 205 203 203 203 202 202 205 207 207 209 209 206 204 208 214 216 217 217 214 210 210 213 215 216 218 219 220 221 222
74 81 87 93 98 102 106 110 113 118 123 127 130 132 134 135 137 138 140 142 144 147 149 150 153 156 157 158 160 161 163 166 169 170 173 177 179 181 182 184 186 187 188 190 192 193 194 194 195 196 197 197 199 204 206 205 203 203 203 201 200 201 201 202 204 205 206 207 208 205 204 207 213 216 219 221 220 216 215 217 219 221 224 227 229 230 231
79 85 91 96 99 103 107 109 112 117 121 124 128 130 131 132 135 137 140 142 143 145 146 147 149 153 156 157 158 160 163 165 167 169 172 176 178 180 182 183 184 186 188 190 191 192 193 194 194 196 196 197 199 202 205 204 203 202 202 201 200 200 201 202 203 204 204 205 205 204 205 207 211 214 217 220 222 220 219 220 222 224 227 231 234 237 237
84 89 95 99 101 104 107 110 113 117 119 122 126 128 129 132 135 137 139 141 141 143 145 146 148 152 155 156 158 161 163 165 167 169 172 174 176 179 181 182 184 186 187 189 190 191 193 194 194 196 197 198 199 201 203 203 203 202 202 201 201 201 201 202 203 203 202 201 201 202 205 209 212 215 218 221 222 222 223 224 224 225 227 230 232 235 237
85 90 95 99 103 106 108 110 114 117 119 122 125 127 129 132 134 136 138 138 139 141 144 146 148 151 154 156 158 161 164 165 166 169 171 173 175 178 180 181 183 185 186 188 190 192 193 194 195 196 197 198 200 202 203 203 202 202 201 201 201 200 200 201 203 203 202 201 200 201 203 206 210 214 218 221 223 224 225 226 227 228 228 228 230 233 236
85 89 92 96 102 107 110 113 116 118 119 122 124 126 128 131 133 135 137 138 140 142 144 146 148 151 154 155 157 160 164 167 167 168 170 172 175 177 179 180 181 183 185 187 191 192 193 194 195 196 196 198 200 202 203 203 203 203 203 202 201 200 199 201 203 204 203 203 203 203 203 205 209 213 217 221 224 226 226 228 229 230 231 231 232 234 236
82 87 90 93 97 104 109 114 118 119 120 122 124 126 128 131 133 136 138 139 142 144 145 146 150 153 154 155 157 159 162 166 168 167 168 170 173 177 178 179 180 182 185 188 190 192 192 193 194 195 196 197 199 201 202 203 204 204 204 202 201 200 199 200 202 204 205 205 206 206 207 208 210 212 215 219 222 225 227 228 230 232 232 233 234 235 236
79 85 89 92 96 100 107 113 116 118 120 121 122 124 128 129 131 135 138 140 143 146 147 149 152 154 154 155 156 158 160 164 167 167 168 170 173 176 177 178 180 183 185 188 190 191 192 193 194 194 196 197 199 200 202 203 204 205 204 203 201 200 199 199 201 204 206 208 209 209 209 210 211 213 215 218 221 223 225 228 231 233 234 234 235 236 237
77 83 87 91 94 96 99 105 111 114 115 115 115 118 123 125 125 128 132 135 139 143 146 150 153 154 154 155 157 158 160 163 166 167 169 172 173 174 175 177 179 182 185 187 189 190 191 192 193 194 196 197 199 201 203 204 205 205 204 202 201 201 200 200 202 204 206 208 210 211 211 212 213 214 217 219 221 223 225 228 230 233 234 235 236 237 237
79 83 86 91 94 94 94 97 104 110 114 115 115 118 123 124 124 125 128 131 135 139 143 148 151 152 153 155 157 158 161 164 167 169 171 171 172 173 175 177 179 182 185 187 188 189 191 192 194 195 197 198 200 202 204 205 205 205 203 202 202 202 202 202 203 205 207 208 210 211 212 214 215 217 219 221 224 225 227 230 232 234 235 235 236 237 238
87 89 92 96 98 99 99 99 103 110 115 118 120 123 126 126 125 126 128 130 133 138 143 148 150 152 154 156 158 160 162 165 168 170 171 171 172 173 176 178 180 183 186 188 189 190 191 192 194 196 199 200 202 204 206 206 206 205 204 204 204 204 204 204 205 206 208 209 210 210 211 213 215 218 220 223 225 227 229 231 233 235 236 237 238 238 239
94 97 100 102 103 105 105 106 108 112 116 119 121 124 126 126 126 128 129 131 134 139 144 149 151 153 156 158 158 159 161 165 167 169 172 173 173 175 178 180 182 185 186 187 189 190 192 194 195 198 200 202 204 206 208 207 206 206 206 206 206 206 207 207 207 208 209 210 211 211 211 212 214 217 220 223 225 227 228 230 231 234 236 238 239 240 242
93 96 100 103 105 107 109 111 114 116 119 121 123 125 126 126 127 129 130 132 135 139 144 148 150 152 156 159 159 159 161 164 166 170 174 176 177 179 181 183 184 186 187 188 190 191 193 195 197 199 201 203 205 207 208 208 207 207 207 208 208 208 209 209 210 210 211 211 212 212 212 213 216 218 221 223 225 226 228 230 231 234 236 238 240 242 244
Height
10698 10694 10691 10688 10685 10682 10680 10678 10676 10675 10675 10674 10672 10668 10667 10667 10667 10663 10663 10664 10662 10662 10666 10667 10668 10673 10679 10682 10683 10688 10693 10696 10698 10699 10699 10702 10707 10711 10715 10719 10719 10720 10723 10724 10727 10732 10736 10740 10746 10748 10750 10750 10749 10749 10751 10754 10758 10763 10767 10771 10775 10781 10790 10795 10799 10809 10816 10818 10822 10826 10829 10833 10838 10848 10857 10861 10867 10873 10880 10889 10892 10894 10902 10905 10906 10913 10912
10679 10675 10671 10668 10664 10661 10659 10656 10654 10654 10653 10653 10651 10648 10645 10646 10646 10642 10642 10645 10643 10642 10644 10646 10649 10654 10658 10662 10667 10672 10676 10679 10682 10684 10685 10687 10691 10697 10703 10706 10707 10709 10711 10713 10716 10720 10725 10730 10735 10738 10741 10741 10739 10738 10742 10746 10749 10752 10755 10759 10766 10772 10780 10785 10789 10798 10803 10803 10809 10820 10826 10828 10834 10845 10853 10857 10864 10869 10873 10878 10880 10886 10895 10897 10902 10911 10909
10659 10654 10649 10645 10641 10637 10634 10632 10629 10628 10627 10628 10628 10627 10623 10622 10623 10620 10619 10623 10625 10623 10622 10625 10629 10633 10638 10643 10649 10653 10657 10661 10665 10667 10670 10673 10676 10683 10689 10692 10695 10697 10699 10702 10705 10708 10714 10719 10722 10727 10731 10732 10730 10729 10733 10737 10739 10741 10744 10749 10758 10763 10769 10776 10780 10787 10794 10798 10807 10818 10822 10824 10830 10838 10845 10850 10855 10858 10863 10866 10869 10880 10890 10891 10897 10906 10903
10636 10630 10625 10619 10614 10610 10606 10604 10601 10599 10599 10600 10602 10602 10601 10599 10599 10597 10594 10598 10603 10601 10601 10604 10607 10611 10618 10625 10628 10632 10638 10644 10647 10650 10655 10658 10661 10668 10674 10678 10682 10685 10688 10692 10694 10696 10702 10707 10710 10716 10719 10720 10719 10720 10725 10728 10729 10731 10734 10740 10748 10752 10759 10767 10772 10778 10786 10791 10798 10806 10808 10812 10818 10824 10830 10836 10840 10846 10851 10852 10859 10874 10880 10881 10890 10898 10896
10610 10604 10598 10592 10587 10582 10578 10575 10573 10571 10570 10571 10574 10575 10575 10575 10575 10573 10571 10572 10575 10577 10578 10581 10586 10590 10597 10603 10606 10611 10618 10624 10629 10634 10638 10641 10645 10651 10658 10663 10669 10673 10676 10680 10683 10685 10689 10694 10699 10704 10707 10710 10710 10712 10716 10719 10720 10722 10726 10731 10737 10742 10750 10758 10761 10768 10775 10779 10785 10790 10794 10799 10805 10809 10816 10822 10826 10832 10836 10840 10853 10864 10866 10872 10883 10887 10888
10582 10576 10569 10564 10559 10554 10550 10547 10545 10542 10541 10543 10546 10547 10547 10549 10549 10549 10548 10548 10548 10551 10555 10558 10563 10568 10572 10579 10586 10590 10596 10603 10610 10616 10620 10624 10629 10635 10642 10649 10655 10660 10664 10667 10671 10673 10676 10683 10689 10692 10696 10699 10700 10703 10707 10710 10712 10714 10717 10723 10729 10734 10741 10747 10751 10758 10764 10767 10772 10777 10782 10788 10792 10798 10805 10810 10815 10820 10824 10832 10844 10850 10854 10865 10874 10874 10879
10553 10546 10540 10534 10530 10526 10522 10520 10517 10515 10512 10513 10516 10518 10518 10520 10521 10521 10523 10524 10522 10523 10528 10534 10539 10543 10548 10557 10564 10568 10574 10581 10588 10597 10604 10609 10614 10620 10627 10633 10639 10644 10649 10654 10659 10663 10666 10672 10677 10680 10684 10688 10689 10692 10698 10702 10703 10705 10710 10716 10722 10726 10732 10737 10741 10748 10754 10757 10762 10767 10773 10777 10781 10788 10796 10800 10805 10811 10817 10826 10835 10839 10844 10856 10861 10862 10870
10523 10517 10511 10505 10501 10498 10495 10493 10491 10488 10485 10483 10484 10487 10489 10490 10491 10492 10495 10498 10497 10496 10500 10509 10516 10520 10526 10534 10541 10546 10552 10558 10567 10580 10590 10594 10597 10602 10608 10614 10621 10629 10637 10643 10649 10652 10655 10659 10664 10669 10674 10677 10678 10682 10688 10693 10695 10698 10703 10709 10713 10718 10723 10726 10732 10739 10744 10749 10753 10757 10761 10766 10771 10779 10786 10791 10796 10802 10809 10818 10827 10832 10839 10848 10851 10855 10865
10493 10488 10483 10478 10474 10471 10468 10466 10464 10461 10459 10455 10453 10457 10459 10460 10462 10464 10467 10470 10472 10471 10474 10481 10491 10498 10503 10511 10519 10526 10531 10537 10550 10563 10570 10574 10577 10581 10589 10600 10611 10620 10626 10632 10636 10639 10643 10649 10654 10659 10664 10665 10667 10672 10678 10684 10688 10691 10696 10700 10704 10710 10714 10717 10722 10729 10735 10739 10741 10745 10749 10754 10758 10765 10774 10782 10788 10795 10803 10814 10822 10829 10835 10841 10845 10852 10861
10464 10460 10456 10452 10448 10444 10442 10439 10437 10435 10434 10430 10427 10429 10432 10434 10436 10438 10441 10445 10446 10447 10450 10456 10465 10474 10481 10488 10498 10506 10511 10519 10530 10540 10547 10553 10559 10566 10577 10589 10599 10605 10609 10616 10623 10630 10636 10640 10643 10648 10652 10654 10658 10662 10667 10673 10680 10684 10687 10691 10696 10702 10705 10707 10712 10720 10725 10726 10728 10733 10738 10740 10747 10758 10769 10778 10785 10792 10800 10808 10816 10822 10827 10832 10840 10849 10853
10438 10434 10430 10426 10422 10419 10417 10415 10413 10412 10411 10408 10404 10405 10408 10411 10413 10415 10419 10422 10422 10423 10429 10435 10442 10450 10458 10467 10478 10486 10492 10499 10509 10519 10528 10536 10544 10554 10564 10572 10581 10588 10595 10605 10615 10621 10625 10628 10632 10638 10642 10645 10649 10651 10655 10663 10672 10676 10680 10684 10689 10694 10698 10701 10705 10711 10714 10716 10719 10723 10727 10732 10743 10756 10765 10772 10778 10784 10789 10796 10804 10810 10816 10824 10834 10840 10840
10416 10411 10406 10402 10399 10397 10395 10393 10392 10392 10391 10387 10384 10385 10388 10391 10394 10396 10399 10402 10403 10403 10409 10417 10423 10430 10437 10446 10457 10466 10472 10481 10491 10501 10510 10518 10527 10537 10546 10554 10564 10575 10585 10596 10603 10608 10613 10617 10622 10628 10632 10636 10639 10641 10646 10654 10663 10668 10672 10677 10682 10687 10691 10694 10698 10700 10704 10708 10711 10714 10721 10731 10741 10749 10755 10760 10765 10769 10774 10781 10789 10796 10805 10815 10824 10829 10831
10394 10390 10386 10383 10380 10378 10377 10375 10374 10374 10373 10370 10366 10368 10371 10373 10376 10379 10381 10385 10386 10387 10393 10399 10405 10412 10418 10425 10437 10447 10455 10463 10473 10483 10492 10499 10508 10520 10531 10540 10551 10563 10575 10583 10589 10595 10602 10608 10613 10618 10623 10626 10629 10632 10639 10646 10653 10659 10664 10669 10675 10679 10682 10686 10690 10692 10696 10701 10704 10707 10718 10727 10732 10737 10743 10746 10749 10754 10761 10769 10779 10788 10797 10806 10813 10819 10824
10376 10372 10369 10366 10363 10362 10361 10359 10358 10357 10357 10355 10352 10353 10356 10359 10361 10363 10366 10369 10370 10372 10378 10383 10388 10395 10403 10410 10421 10431 10439 10447 10456 10466 10475 10481 10491 10504 10516 10526 10539 10551 10561 10568 10575 10584 10592 10598 10603 10609 10612 10615 10620 10626 10633 10637 10642 10648 10655 10661 10666 10670 10674 10678 10681 10685 10689 10694 10699 10705 10712 10718 10721 10726 10731 10733 10736 10742 10750 10759 10770 10780 10787 10794 10803 10809 10814
10360 10357 10354 10351 10349 10348 10346 10345 10344 10343 10342 10341 10339 10340 10343 10346 10348 10349 10352 10355 10357 10359 10364 10368 10374 10383 10391 10397 10405 10414 10422 10429 10438 10449 10458 10464 10474 10489 10502 10515 10528 10537 10546 10555 10565 10574 10582 10589 10594 10598 10602 10608 10616 10621 10624 10627 10632 10639 10646 10652 10657 10661 10666 10670 10673 10677 10682 10688 10695 10699 10703 10708 10711 10715 10720 10723 10725 10731 10738 10748 10760 10768 10775 10783 10792 10799 10804
10347 10343 10341 10338 10336 10335 10334 10332 10331 10331 10329 10328 10327 10328 10331 10333 10335 10337 10340 10344 10345 10347 10351 10356 10362 10371 10379 10384 10390 10398 10406 10415 10424 10434 10442 10449 10460 10474 10489 10502 10514 10524 10534 10545 10555 10565 10573 10579 10584 10590 10596 10603 10609 10612 10614 10617 10623 10630 10636 10642 10648 10653 10658 10663 10667 10670 10673 10679 10688 10693 10696 10700 10703 10705 10710 10712 10714 10720 10726 10736 10749 10760 10766 10774 10782 10790 10795
10334 10331 10329 10327 10324 10322 10322 10321 10320 10319 10318 10317 10316 10318 10320 10322 10323 10326 10329 10333 10334 10335 10340 10345 10352 10360 10367 10372 10378 10385 10392 10402 10411 10419 10428 10436 10447 10461 10476 10489 10501 10512 10523 10533 10544 10555 10564 10570 10576 10583 10589 10595 10599 10602 10605 10609 10615 10622 10628 10634 10640 10645 10651 10656 10660 10663 10665 10671 10679 10685 10688 10692 10695 10697 10699 10701 10704 10708 10713 10725 10743 10755 10758 10763 10773 10780 10782
10322 10320 10318 10316 10313 10312 10311 10310 10309 10309 10308 10307 10307 10309 10311 10312 10313 10316 10319 10322 10323 10324 10330 10336 10342 10349 10355 10360 10367 10374 10381 10390 10399 10406 10415 10424 10434 10448 10463 10476 10488 10500 10509 10520 10534 10545 10553 10560 10568 10575 10581 10586 10590 10594 10599 10603 10609 10616 10621 10625 10631 10639 10645 10649 10653 10655 10657 10662 10670 10677 10681 10684 10687 10687 10688 10691 10695 10698 10706 10722 10739 10746 10747 10753 10761 10766 10769
10312 10310 10308 10306 10304 10302 10301 10301 10301 10300 10299 10298 10298 10301 10303 10303 10304 10307 10310 10313 10314 10316 10321 10328 10333 10338 10346 10352 10359 10365 10370 10379 10388 10395 10403 10413 10424 10437 10451 10464 10476 10486 10497 10511 10525 10535 10543 10551 10558 10565 10572 10577 10581 10588 10595 10599 10603 10609 10613 10617 10625 10632 10638 10641 10645 10648 10651 10655 10660 10667 10673 10678 10679 10677 10679 10683 10688 10694 10705 10719 10728 10733 10736 10741 10747 10753 10758
10303 10301 10299 10297 10296 10294 10293 10292 10293 10292 10291 10290 10291 10294 10295 10295 10297 10299 10302 10305 10306 10308 10314 10321 10325 10331 10339 10345 10350 10355 10361 10369 10378 10384 10393 10405 10415 10426 10439 10452 10463 10474 10487 10503 10516 10524 10532 10541 10547 10554 10562 10568 10574 10582 10588 10592 10596 10603 10608 10611 10617 10623 10628 10633 10638 10641 10644 10647 10651 10659 10669 10673 10671 10669 10673 10678 10683 10691 10701 10708 10714 10720 10725 10729 10735 10743 10747
10295 10293 10292 10290 10288 10287 10285 10285 10285 10285 10284 10284 10285 10287 10288 10288 10290 10293 10295 10298 10299 10302 10309 10315 10319 10325 10333 10337 10341 10347 10353 10361 10369 10377 10387 10397 10406 10415 10428 10441 10453 10465 10478 10493 10505 10513 10521 10529 10537 10544 10552 10560 10567 10575 10582 10587 10592 10597 10601 10604 10609 10614 10620 10627 10632 10633 10636 10641 10646 10654 10661 10662 10661 10663 10667 10672 10677 10684 10690 10695 10702 10710 10715 10720 10727 10732 10736
10287 10285 10284 10283 10281 10279 10279 10278 10278 10278 10277 10278 10279 10280 10281 10283 10285 10287 10289 10291 10293 10298 10305 10310 10314 10319 10325 10329 10334 10340 10347 10355 10363 10371 10379 10388 10396 10406 10419 10432 10444 10456 10469 10483 10495 10504 10511 10520 10528 10536 10544 10553 10560 10567 10576 10582 10585 10588 10593 10599 10605 10610 10614 10619 10623 10625 10629 10635 10640 10646 10650 10651 10653 10657 10662 10666 10672 10677 10680 10685 10693 10700 10707 10713 10718 10722 10727
10281 10278 10277 10276 10274 10273 10272 10272 10272 10271 10271 10272 10273 10274 10276 10277 10279 10281 10284 10286 10289 10295 10301 10304 10307 10313 10318 10323 10329 10335 10341 10349 10357 10363 10371 10380 10388 10398 10410 10423 10435 10448 10461 10475 10486 10494 10503 10513 10521 10529 10537 10545 10553 10561 10569 10574 10578 10582 10587 10594 10600 10603 10605 10610 10614 10618 10622 10628 10633 10637 10642 10645 10648 10651 10656 10662 10667 10670 10673 10678 10684 10691 10699 10705 10710 10715 10720
10274 10272 10270 10269 10268 10267 10266 10266 10266 10266 10266 10266 10268 10269 10271 10273 10275 10277 10279 10282 10286 10291 10295 10297 10302 10308 10313 10318 10323 10328 10335 10342 10349 10357 10365 10373 10381 10391 10403 10417 10429 10440 10454 10467 10477 10485 10495 10504 10512 10520 10530 10537 10545 10554 10561 10566 10571 10575 10580 10587 10593 10595 10597 10603 10608 10611 10616 10622 10627 10631 10636 10639 10641 10645 10651 10657 10661 10664 10667 10671 10677 10684 10691 10697 10703 10708 10712
10268 10267 10265 10264 10263 10262 10261 10261 10261 10261 10261 10262 10264 10265 10267 10269 10271 10272 10275 10278 10282 10286 10289 10293 10298 10304 10308 10312 10316 10322 10329 10337 10343 10351 10358 10365 10374 10386 10398 10410 10422 10434 10447 10457 10466 10476 10488 10496 10503 10513 10522 10529 10538 10546 10552 10556 10560 10565 10573 10581 10586 10587 10592 10598 10602 10605 10611 10617 10621 10626 10631 10634 10637 10642 10648 10652 10656 10659 10662 10666 10671 10677 10684 10690 10696 10701 10705
10263 10262 10260 10259 10258 10257 10257 10257 10257 10257 10258 10259 10260 10262 10263 10265 10266 10268 10271 10275 10278 10281 10285 10289 10294 10298 10302 10307 10313 10319 10326 10332 10337 10344 10352 10361 10371 10382 10392 10403 10415 10427 10438 10448 10457 10468 10478 10485 10493 10504 10512 10519 10529 10537 10542 10545 10550 10557 10566 10573 10577 10580 10586 10592 10595 10599 10605 10612 10617 10622 10627 10631 10634 10640 10647 10651 10653 10655 10658 10662 10667 10671 10677 10683 10689 10694 10698
10258 10257 10256 10255 10254 10253 10253 10253 10253 10254 10254 10256 10257 10259 10260 10261 10263 10265 10268 10272 10275 10278 10281 10285 10290 10295 10300 10304 10310 10316 10321 10326 10332 10340 10349 10358 10367 10376 10386 10398 10409 10420 10430 10440 10452 10462 10470 10477 10485 10495 10502 10509 10519 10526 10530 10534 10541 10550 10558 10564 10568 10574 10580 10585 10588 10594 10601 10608 10613 10617 10622 10626 10632 10640 10648 10651 10650 10650 10653 10657 10661 10665 10671 10677 10682 10687 10689
10254 10253 10252 10251 10250 10250 10250 10250 10250 10251 10252 10253 10254 10256 10257 10259 10261 10263 10266 10269 10272 10276 10279 10284 10289 10293 10297 10302 10307 10312 10317 10323 10330 10338 10347 10355 10362 10372 10383 10393 10404 10415 10425 10434 10445 10457 10466 10474 10481 10488 10496 10504 10512 10519 10523 10528 10535 10545 10552 10557 10562 10568 10574 10579 10584 10589 10596 10602 10607 10611 10617 10622 10629 10637 10645 10647 10647 10647 10649 10652 10655 10660 10665 10670 10676 10680 10682
10251 10250 10249 10248 10247 10247 10247 10248 10248 10249 10249 10250 10252 10253 10255 10257 10259 10262 10264 10267 10271 10274 10278 10282 10286 10290 10294 10299 10304 10310 10316 10323 10330 10338 10345 10352 10359 10369 10379 10389 10400 10410 10419 10428 10439 10450 10459 10468 10475 10483 10491 10499 10506 10513 10519 10524 10531 10540 10546 10550 10556 10563 10569 10574 10579 10585 10591 10596 10601 10606 10611 10618 10625 10631 10637 10641 10644 10645 10648 10650 10653 10656 10660 10664 10669 10674 10676
10248 10247 10246 10246 10245 10245 10245 10245 10246 10247 10247 10248 10250 10251 10253 10255 10258 10260 10263 10266 10270 10273 10277 10280 10284 10288 10293 10298 10303 10309 10316 10323 10329 10336 10342 10349 10358 10367 10377 10386 10396 10405 10412 10420 10431 10441 10447 10456 10466 10476 10484 10493 10501 10509 10514 10519 10527 10534 10539 10545 10552 10559 10565 10571 10576 10581 10587 10593 10597 10602 10607 10614 10620 10625 10630 10636 10641 10644 10646 10648 10651 10653 10657 10660 10664 10668 10672
10247 10245 10245 10244 10243 10243 10243 10244 10244 10245 10246 10248 10249 10251 10252 10255 10257 10260 10263 10266 10269 10273 10276 10279 10283 10288 10293 10298 10303 10309 10315 10321 10327 10334 10341 10349 10357 10366 10375 10384 10392 10399 10406 10415 10426 10435 10442 10451 10461 10469 10477 10487 10496 10501 10506 10514 10522 10528 10534 10541 10549 10556 10561 10567 10572 10577 10584 10590 10594 10599 10605 10611 10616 10621 10626 10632 10637 10640 10643 10646 10648 10651 10654 10657 10660 10663 10667
10245 10244 10243 10243 10242 10242 10242 10243 10243 10244 10246 10247 10249 10250 10252 10255 10257 10260 10263 10266 10269 10272 10275 10279 10283 10288 10292 10297 10303 10309 10314 10320 10327 10333 10340 10347 10355 10363 10372 10380 10388 10396 10404 10413 10423 10432 10441 10451 10459 10465 10472 10481 10489 10494 10501 10510 10518 10524 10530 10538 10545 10552 10557 10562 10567 10573 10580 10586 10591 10597 10603 10608 10613 10617 10622 10626 10631 10635 10639 10642 10645 10648 10651 10654 10657 10660 10663
10244 10243 10242 10242 10242 10242 10242 10243 10243 10245 10246 10247 10249 10251 10253 10255 10257 10260 10263 10266 10269 10272 10276 10279 10283 10288 10293 10298 10303 10309 10314 10320 10326 10333 10339 10346 10353 10361 10368 10376 10384 10392 10400 10409 10419 10429 10439 10449 10456 10462 10469 10477 10484 10492 10500 10507 10514 10521 10528 10534 10541 10547 10552 10557 10563 10569 10576 10582 10588 10593 10597 10602 10607 10611 10615 10620 10625 10630 10633 10637 10639 10642 10646 10650 10654 10657 10660
10244 10243 10242 10242 10242 10242 10243 10243 10244 10245 10247 10248 10250 10251 10253 10255 10257 10260 10263 10266 10269 10273 10276 10279 10283 10288 10293 10298 10304 10309 10314 10319 10324 10330 10337 10344 10352 10359 10366 10374 10381 10388 10396 10405 10416 10426 10436 10444 10451 10458 10465 10473 10482 10490 10497 10503 10510 10518 10524 10530 10536 10542 10548 10553 10558 10565 10571 10576 10581 10584 10589 10595 10601 10605 10609 10614 10619 10624 10628 10632 10634 10637 10641 10645 10648 10652 10656
10244 10244 10243 10243 10243 10244 10244 10245 10246 10247 10248 10249 10251 10252 10254 10256 10258 10261 10263 10266 10269 10272 10276 10279 10284 10288 10293 10298 10303 10309 10314 10319 10324 10330 10337 10343 10351 10358 10365 10373 10380 10388 10397 10407 10416 10424 10433 10441 10449 10455 10462 10471 10480 10487 10493 10499 10507 10514 10519 10525 10531 10537 10543 10548 10554 10559 10565 10570 10574 10578 10584 10590 10596 10600 10604 10608 10613 10618 10622 10626 10629 10633 10637 10640 10642 10645 10648
10246 10245 10245 10245 10245 10245 10246 10247 10248 10249 10250 10251 10252 10254 10255 10257 10259 10262 10264 10267 10270 10273 10276 10280 10284 10289 10294 10299 10303 10309 10314 10319 10325 10332 10338 10344 10351 10358 10365 10373 10380 10388 10397 10407 10415 10422 10431 10438 10445 10452 10460 10468 10476 10482 10489 10496 10503 10509 10514 10520 10526 10532 10538 10543 10548 10554 10560 10564 10569 10574 10579 10585 10590 10594 10598 10602 10607 10612 10617 10621 10624 10627 10630 10633 10636 10639 10642
10248 10247 10247 10247 10247 10247 10248 10249 10249 10250 10251 10253 10254 10255 10257 10259 10262 10264 10266 10269 10272 10275 10279 10282 10286 10291 10296 10300 10305 10310 10315 10321 10327 10333 10340 10346 10352 10359 10366 10373 10381 10389 10398 10406 10413 10421 10429 10435 10442 10449 10458 10465 10472 10479 10485 10492 10499 10504 10510 10516 10522 10527 10533 10538 10544 10549 10555 10559 10564 10569 10575 10580 10584 10588 10592 10596 10601 10606 10610 10614 10617 10620 10622 10625 10629 10633 10635
10250 10249 10249 10249 10249 10249 10250 10251 10251 10252 10254 10255 10256 10258 10260 10262 10264 10267 10269 10272 10275 10279 10282 10286 10290 10294 10298 10303 10307 10312 10318 10323 10329 10335 10341 10348 10354 10360 10367 10374 10381 10389 10397 10405 10412 10420 10427 10434 10441 10449 10457 10463 10470 10476 10482 10489 10496 10501 10506 10512 10518 10523 10529 10535 10540 10545 10550 10554 10559 10565 10570 10574 10577 10580 10583 10588 10593 10598 10602 10606 10609 10612 10615 10619 10622 10625 10629
10253 10253 10252 10252 10252 10253 10253 10254 10254 10255 10256 10258 10259 10261 10263 10265 10267 10270 10272 10275 10279 10282 10286 10291 10294 10297 10301 10306 10310 10315 10321 10326 10332 10337 10343 10349 10355 10361 10368 10375 10382 10389 10396 10404 10411 10419 10425 10433 10441 10448 10455 10463 10469 10474 10480 10486 10493 10498 10503 10509 10514 10520 10525 10530 10535 10540 10545 10550 10554 10559 10563 10567 10570 10573 10577 10582 10588 10593 10597 10599 10602 10606 10610 10612 10615 10618 10622
10256 10256 10256 10256 10256 10257 10257 10257 10258 10259 10260 10261 10263 10264 10266 10268 10271 10273 10276 10279 10282 10285 10289 10293 10297 10300 10304 10308 10313 10318 10323 10328 10334 10339 10345 10351 10357 10363 10369 10375 10382 10389 10397 10404 10410 10417 10424 10432 10439 10446 10453 10461 10467 10472 10477 10484 10490 10495 10500 10506 10511 10516 10521 10526 10530 10535 10540 10545 10549 10553 10558 10562 10566 10570 10574 10579 10584 10589 10592 10595 10599 10603 10606 10608 10610 10613 10616
10260 10260 10260 10260 10260 10261 10261 10262 10262 10264 10264 10265 10267 10268 10270 10272 10275 10277 10280 10283 10286 10289 10292 10296 10300 10304 10308 10311 10316 10320 10325 10330 10336 10341 10348 10354 10359 10365 10370 10377 10383 10391 10398 10404 10410 10417 10424 10431 10438 10445 10451 10458 10464 10469 10475 10481 10487 10492 10497 10503 10508 10512 10517 10521 10526 10531 10536 10540 10544 10548 10552 10557 10562 10566 10570 10575 10579 10584 10588 10591 10595 10599 10601 10603 10606 10609 10611
10264 10263 10263 10263 10264 10264 10265 10265 10266 10267 10269 10270 10271 10273 10274 10277 10279 10282 10284 10287 10290 10293 10296 10300 10304 10308 10311 10315 10319 10323 10327 10332 10338 10343 10348 10354 10360 10366 10372 10379 10385 10392 10398 10404 10411 10418 10424 10430 10437 10443 10449 10455 10461 10466 10473 10479 10484 10489 10494 10499 10504 10509 10513 10517 10522 10527 10531 10535 10540 10544 10549 10554 10558 10562 10565 10570 10574 10578 10582 10586 10589 10593 10595 10598 10600 10602 10604
10267 10267 10267 10267 10267 10268 10269 10269 10270 10271 10273 10274 10276 10277 10279 10281 10283 10286 10288 10291 10294 10297 10300 10303 10307 10311 10315 10318 10322 10327 10330 10334 10339 10344 10349 10355 10361 10367 10373 10379 10385 10391 10397 10403 10410 10417 10422 10428 10434 10441 10447 10453 10458 10463 10469 10474 10480 10485 10491 10496 10501 10505 10509 10513 10518 10522 10527 10531 10536 10541 10546 10551 10555 10558 10561 10564 10568 10573 10577 10580 10583 10586 10589 10591 10593 10595 10597
10271 10271 10271 10271 10271 10272 10273 10273 10274 10276 10277 10279 10280 10282 10284 10286 10288 10291 10293 10296 10299 10302 10305 10308 10311 10314 10318 10321 10325 10330 10334 10337 10341 10346 10351 10356 10362 10368 10373 10379 10385 10391 10398 10405 10410 10415 10420 10427 10433 10440 10446 10452 10457 10461 10466 10471 10477 10483 10488 10492 10496 10501 10505 10509 10513 10518 10523 10528 10532 10536 10541 10546 10550 10554 10557 10560 10564 10567 10571 10574 10577 10579 10582 10584 10586 10589 10591
10275 10275 10276 10276 10276 10276 10277 10278 10279 10280 10281 10283 10285 10287 10288 10291 10293 10295 10298 10300 10303 10305 10308 10312 10315 10318 10321 10324 10328 10333 10338 10341 10345 10348 10353 10358 10364 10369 10374 10380 10387 10394 10400 10406 10410 10415 10422 10428 10434 10440 10446 10451 10456 10460 10465 10471 10476 10480 10484 10487 10491 10496 10500 10504 10509 10514 10519 10524 10528 10532 10536 10540 10544 10548 10552 10556 10559 10562 10565 10568 10570 10573 10575 10578 10580 10582 10585
10280 10280 10280 10281 10281 10281 10282 10282 10284 10285 10286 10288 10289 10291 10293 10295 10297 10299 10301 10303 10306 10309 10311 10314 10318 10321 10324 10327 10331 10336 10341 10345 10349 10352 10356 10361 10367 10372 10377 10383 10389 10394 10400 10405 10410 10416 10422 10427 10433 10439 10444 10449 10453 10458 10463 10468 10471 10474 10477 10482 10487 10492 10497 10502 10506 10511 10515 10519 10524 10528 10532 10536 10539 10543 10546 10550 10554 10557 10560 10562 10565 10567 10569 10571 10573 10575 10577
10285 10285 10285 10286 10286 10287 10287 10288 10289 10290 10291 10292 10294 10296 10298 10299 10301 10303 10305 10307 10310 10312 10315 10317 10320 10324 10327 10330 10334 10338 10343 10348 10352 10356 10359 10363 10368 10373 10378 10384 10390 10395 10400 10405 10410 10416 10421 10427 10432 10437 10442 10446 10451 10455 10459 10462 10464 10467 10472 10478 10484 10489 10494 10499 10503 10507 10511 10515 10519 10523 10527 10531 10535 10538 10541 10544 10548 10551 10554 10556 10559 10561 10563 10564 10566 10568 10569
10291 10290 10290 10291 10292 10292 10293 10294 10295 10296 10297 10298 10300 10303 10305 10305 10306 10309 10312 10313 10315 10318 10320 10323 10325 10328 10331 10334 10338 10341 10345 10350 10354 10357 10361 10365 10369 10375 10380 10385 10390 10396 10400 10405 10410 10415 10421 10426 10431 10435 10439 10444 10447 10450 10452 10454 10457 10462 10469 10475 10481 10486 10490 10494 10498 10502 10506 10510 10514 10518 10522 10526 10530 10533 10536 10539 10542 10544 10547 10549 10552 10554 10555 10557 10558 10560 10561
10296 10295 10295 10296 10298 10298 10299 10300 10301 10302 10302 10303 10305 10307 10310 10310 10311 10314 10317 10319 10321 10323 10326 10328 10331 10333 10335 10339 10342 10345 10348 10352 10356 10359 10362 10367 10372 10377 10382 10386 10391 10396 10400 10404 10409 10414 10419 10423 10428 10432 10436 10439 10441 10443 10445 10448 10454 10460 10467 10473 10477 10481 10485 10489 10492 10496 10500 10504 10508 10512 10517 10520 10524 10527 10530 10533 10535 10537 10539 10541 10543 10545 10546 10548 10549 10550 10551
10299 10300 10300 10302 10303 10303 10304 10305 10306 10307 10307 10307 10309 10311 10313 10314 10316 10318 10321 10323 10325 10328 10330 10332 10334 10336 10339 10342 10345 10349 10352 10355 10359 10363 10367 10370 10374 10378 10382 10386 10390 10395 10399 10403 10408 10413 10417 10422 10426 10430 10433 10435 10437 10439 10442 10448 10454 10460 10465 10470 10474 10477 10481 10484 10488 10491 10495 10499 10503 10506 10510 10514 10517 10520 10522 10525 10527 10529 10531 10533 10535 10536 10537 10538 10539 10540 10541
10303 10304 10305 10306 10307 10307 10308 10309 10310 10312 10312 10313 10313 10315 10317 10319 10321 10323 10326 10328 10330 10332 10334 10336 10338 10340 10343 10346 10349 10352 10356 10359 10363 10366 10370 10373 10376 10380 10383 10386 10389 10393 10397 10402 10407 10412 10416 10420 10424 10427 10429 10433 10435 10438 10442 10448 10453 10458 10462 10466 10470 10474 10477 10480 10484 10487 10491 10494 10497 10501 10503 10506 10509 10511 10514 10517 10519 10520 10523 10524 10526 10527 10528 10529 10530 10531 10532
10309 10310 10311 10311 10311 10312 10312 10313 10314 10316 10317 10318 10319 10320 10322 10323 10325 10328 10330 10332 10334 10336 10338 10340 10343 10345 10348 10350 10353 10355 10358 10362 10365 10368 10371 10374 10377 10380 10383 10386 10390 10394 10398 10402 10406 10409 10413 10417 10421 10424 10427 10430 10433 10436 10441 10446 10451 10455 10459 10463 10467 10470 10474 10477 10480 10483 10486 10489 10492 10494 10496 10499 10501 10504 10506 10508 10509 10512 10514 10515 10516 10518 10519 10520 10521 10522 10523